Location: Kapuskasing
(49.3803°N, 82.4001°W)
Time: 18:59:24
(UTC-04:00)

Tiangong - Visible Passes

Search period start: 14 March 2026 00:00
Search period end: 24 March 2026 00:00
Orbit: 381 x 390 km, 41.5° (Epoch: 14 March)

Date Brightness Start Highest point End Pass type
(mag) Time Alt. Az. Time Alt. Az. Time Alt. Az.
14 Mar 0.1 07:07:33 10° SW 07:09:50 18° S 07:12:07 10° SE visible
15 Mar 0.1 06:09:34 14° S 06:10:28 15° SSE 06:12:28 10° SE visible
16 Mar -0.2 06:44:54 10° SW 06:47:13 20° S 06:49:38 10° SE visible
17 Mar -0.1 05:47:58 18° SSE 05:47:58 18° SSE 05:50:00 10° SE visible
18 Mar -0.3 06:23:10 16° SSW 06:24:23 19° S 06:26:46 10° SE visible
19 Mar 0.3 05:26:08 15° SE 05:26:08 15° SE 05:27:10 10° SE visible
19 Mar 0.1 06:59:03 10° SW 07:00:58 15° SSW 07:02:52 10° SSE visible
20 Mar -0.2 06:01:17 18° S 06:01:19 18° S 06:03:33 10° SE visible
21 Mar 0.2 06:36:33 10° SW 06:37:43 12° SSW 06:38:53 10° S visible
22 Mar 0.5 05:39:28 12° SSE 05:39:28 12° SSE 05:39:53 10° SSE visible
